Location: Indian Springs
(36.5700°N, 115.6700°W)
Time: 12:28:14
(UTC-07:00)

Daily predictions for brighter satellites

Satellite Brightness Start Highest point End
(mag) Time Altitude Azimuth Time Altitude Azimuth Time Altitude Azimuth
Cosmos 1697 Rocket 2.9 20:09:19 10° NNW 20:15:00 78° WSW 20:20:38 10° SSE
Tiangong 2 1.3 20:12:27 10° WSW 20:15:35 75° NNW 20:18:45 10° ENE
Timation 2 Rocket 4.4 20:11:02 10° S 20:16:23 36° ESE 20:21:48 10° NE
USA 186 1.8 20:17:04 10° SSE 20:20:11 67° ENE 20:23:30 10° N
ATLAS 3B R/B 3.0 20:14:02 10° SSW 20:21:19 84° WNW 20:28:19 10° NNE
Thor Agena Rocket 3.6 20:19:14 10° NNE 20:24:31 78° ESE 20:29:42 10° S
Cosmos 2061 Rocket 4.3 20:18:37 10° S 20:25:00 77° W 20:31:22 10° N
Cosmos 1666 4.2 20:24:03 10° NNE 20:27:05 22° ENE 20:30:06 10° SE
Cosmos 1980 Rocket 2.2 20:22:36 10° NNW 20:28:17 76° ENE 20:33:57 10° SSE
ERS-2 2.3 20:24:54 10° SSE 20:28:31 59° ENE 20:32:10 10° N
Resurs 1-3 3.7 20:24:17 10° SSE 20:28:34 58° ENE 20:32:53 10° N
Cosmos 1812 4.0 20:25:59 10° SSW 20:29:39 45° W 20:33:22 10° N
Cosmos 2016 Rocket 4.1 20:26:06 10° S 20:32:12 80° W 20:38:21 10° N
Okean 1 3.4 20:30:14 10° S 20:34:13 61° E 20:38:14 10° NNE
Cosmos 1743 3.9 20:33:51 10° NNE 20:37:05 25° ENE 20:39:47 13° SE
Shenzhou-11 Module 4.1 20:36:02 10° NW 20:38:29 23° N 20:40:57 10° NE
Cosmos 1939 Rocket 3.1 20:37:32 10° S 20:41:37 74° WSW 20:45:46 10° NNW
Cosmos 1725 Rocket 4.0 20:37:55 10° S 20:44:06 88° W 20:50:21 10° N
Spot 2 Rocket 3.6 20:40:16 10° SSE 20:45:14 63° ENE 20:50:13 10° N
Tsikada Rocket 4.1 20:39:43 10° N 20:46:08 72° E 20:52:32 10° SSE
Cosmos 468 Rocket 4.0 20:44:03 10° S 20:49:16 68° ESE 20:54:30 10° NNE
IUS-9 SRM-1 4.4 20:45:49 10° SW 20:49:42 36° SSE 21:04:06 10° ESE
Cosmos 1378 Rocket 3.6 20:46:21 10° S 20:50:40 78° W 20:54:58 10° N
OAO 1 Rocket 4.4 20:46:14 10° WSW 20:51:32 71° S 20:56:52 10° E
GPS 2-04 Rocket1 3.6 20:47:57 10° W 20:51:53 39° SSW 20:54:44 17° SE
Meteor 1-18 Rocket 4.5 20:46:11 10° SSW 20:52:00 79° W 20:57:56 10° N
SAR-Lupe-3 4.5 20:48:37 10° NNE 20:52:12 69° ESE 20:55:45 10° S
Cosmos 1937 Rocket 4.5 20:48:19 10° N 20:52:52 31° ENE 20:56:07 16° ESE
Cosmos 1975 Rocket 3.3 20:49:09 10° SSE 20:53:19 48° E 20:57:28 10° NNE
Meteor 2-4 Rocket 4.3 20:52:23 12° SSE 20:56:49 35° E 21:01:46 10° NNE
Okean 1 Rocket 3.0 20:52:36 10° N 20:56:57 84° W 21:01:16 10° S
Cosmos 1763 Rocket 3.8 20:51:57 10° S 20:57:02 48° ESE 21:02:06 10° NNE
Cosmos 841 Rocket 4.1 20:57:05 10° SSE 21:01:48 36° E 21:06:34 10° NE
Cosmos 1340 Rocket 3.8 21:07:29 23° SE 21:08:54 29° E 21:12:28 10° NNE
Delta 7925 Rocket 4.4 21:05:39 10° SW 21:09:22 23° S 21:10:46 20° SSE
NOAA 11 4.5 21:09:52 10° S 21:15:18 67° WSW 21:20:45 10° NNW
Resurs 01 Rocket 2.9 21:14:00 10° SSW 21:18:05 38° W 21:22:13 10° NNW
ARGOS 3.3 21:15:41 22° SSE 21:19:10 61° ENE 21:24:30 10° N
Cosmos 2322 Rocket 2.3 21:13:40 10° NNW 21:19:14 61° ENE 21:22:27 25° SE
Centaur D-1A AC-31 2.3 21:14:55 10° WSW 21:20:02 26° SSW 21:21:08 22° SSE
Cosmos 2084 3.8 21:15:53 10° SW 21:20:14 65° WNW 21:24:22 10° NNE
SPOT 5 4.2 21:19:27 18° E 21:20:44 20° ENE 21:24:02 10° NNE
Cosmos 2233 Rocket 4.3 21:18:02 10° SSW 21:24:06 67° W 21:30:17 10° N
Cosmos 1356 4.1 21:25:40 34° E 21:25:43 34° E 21:28:53 10° NNE
SJ 16-02 3.3 21:23:28 10° NNE 21:26:12 16° ENE 21:27:11 15° ENE
Cosmos 1536 Rocket 4.4 21:25:46 30° ESE 21:26:42 33° E 21:30:41 10° NNE
Meteor 1-13 Rocket 4.3 21:21:43 10° S 21:27:35 81° E 21:33:33 10° N
SL-16 R/B 2.2 21:22:19 10° NNW 21:28:01 78° ENE 21:31:11 27° SSE
USA 234 3.9 21:23:15 10° NE 21:29:40 58° NW 21:36:03 10° WSW
ERS-1 Rocket 3.4 21:27:49 29° SE 21:29:59 47° ENE 21:34:47 10° N
Terra 3.8 21:29:39 13° E 21:30:43 14° ENE 21:33:10 10° NNE
H-2A R/B 2.0 21:31:36 30° SE 21:33:56 65° ENE 21:38:54 10° N
BREEZE M DEB (TANK) 3.4 21:26:06 10° NW 21:35:27 55° NNE 21:37:12 29° E
Cosmos 1898 Rocket 3.7 21:30:23 10° NNW 21:35:40 72° WSW 21:38:49 25° S
NOSS 3-2 (C) 4.5 21:30:16 10° SW 21:35:54 47° NW 21:42:08 10° NNE
ISS -0.4 21:35:10 10° NW 21:36:33 12° NNW 21:37:57 10° N
Cosmos 1814 Rocket 4.2 21:32:49 10° SSW 21:38:02 74° WNW 21:43:21 10° NNE
Cosmos 1975 4.2 21:34:26 10° NNW 21:38:08 35° W 21:41:15 13° SSW
Cosmos 1242 Rocket 3.6 21:40:37 10° NNW 21:44:04 41° W 21:45:43 25° SSW
ATLAS CENTAUR R/B 4.0 21:41:11 10° WNW 21:44:06 17° WSW 21:47:06 10° SSW
Helios 1B rocket 3.5 21:41:55 10° NE 21:45:01 30° E 21:45:01 30° E
EPKM 4.5 21:44:36 10° SW 21:45:32 12° SW 21:45:32 12° SW
Atlas Centaur 2 2.9 21:46:00 10° WSW 21:47:54 19° SW 21:47:54 19° SW
DMSP B5D2-2 4.1 21:44:36 10° NNE 21:49:51 61° ESE 21:51:49 37° SSE
MetOp-B 4.1 21:47:21 31° S 21:50:01 83° WSW 21:55:24 10° NNW
Tiangong 2 3.1 21:49:52 10° WNW 21:52:37 27° N 21:54:20 17° NE
Cosmos 990 Rocket 4.2 21:49:20 10° NNW 21:54:31 67° WSW 21:56:44 34° S
CENTAUR R/B 2.7 21:52:51 10° SW 21:58:40 72° NW 22:05:23 10° NNE
Aureole 2 Rocket 3.1 21:56:42 10° NNW 21:58:44 40° N 21:58:44 40° N
Cosmos 1513 Rocket 4.4 22:04:26 27° SSW 22:07:59 81° W 22:14:11 10° N
USA 245 3.2 22:09:13 67° W 22:09:13 67° W 22:13:07 10° NNW
Cosmos 2360 Rocket 2.2 22:04:00 10° NNW 22:09:38 69° ENE 22:10:59 51° SE
Cosmos 2034 Rocket 3.8 22:07:11 36° S 22:09:56 84° E 22:16:07 10° N
Cosmos 2150 Rocket 4.1 22:05:27 10° NNW 22:10:47 70° WSW 22:12:19 46° S
Cosmos 2219 Rocket 3.7 22:09:51 10° N 22:14:03 21° ENE 22:15:18 20° ENE
Cosmos 1464 Rocket 4.3 22:09:34 20° SSW 22:14:06 65° W 22:20:28 10° N
Cosmos 1025 Rocket 3.5 22:15:30 46° ENE 22:15:30 46° ENE 22:19:07 10° NNE
Shenzhou-11 Module 3.8 22:12:09 10° NW 22:14:08 31° NNW 22:14:08 31° NNW
CZ-2C R/B 4.0 22:11:10 10° NE 22:14:59 25° E 22:14:59 25° E
Cosmos 1455 Rocket 4.2 22:19:16 10° NNW 22:23:19 38° W 22:24:23 33° SW
Lacrosse 5 rocket 2.3 22:19:49 10° NNW 22:23:47 39° NE 22:23:47 39° NE
Cosmos 2333 Rocket 3.5 22:27:58 10° N 22:32:46 27° ENE 22:33:37 26° ENE
Cosmos 540 Rocket 4.1 22:30:31 26° SW 22:33:13 52° WNW 22:38:17 10° N
COSMOS 2428 3.2 22:30:38 10° N 22:36:05 45° ENE 22:36:36 44° E
OAO 1 Rocket 4.4 22:31:51 10° W 22:36:45 66° SW 22:36:45 66° SW
Cosmos 1634 Rocket 4.1 22:37:31 54° ESE 22:38:00 55° E 22:44:10 10° NNE
Helios 1A 4.1 22:45:42 37° W 22:45:42 37° W 22:49:24 10° NNW
CZ-2C R/B 3.2 22:47:35 64° ENE 22:47:37 64° ENE 22:53:07 10° N
Landsat 7 4.2 22:49:14 57° W 22:49:14 57° W 22:53:54 10° NNW
Cosmos 2297 Rocket 3.9 22:56:45 20° ENE 22:56:45 20° ENE 22:59:03 10° NE
Cosmos 2227 Rocket 3.7 22:59:47 24° ENE 22:59:47 24° ENE 23:02:36 10° NE
Okean 1-7 Rocket 4.3 22:59:30 53° N 22:59:30 53° N 23:03:00 10° N
SPOT 5 4.0 22:58:41 31° W 22:58:41 31° W 23:02:34 10° NW
CZ-4C R/B 3.2 22:51:58 10° NNW 22:59:14 60° NE 23:01:14 48° ESE
Cosmos 372 Rocket 4.2 22:54:42 10° NNW 22:59:29 62° W 22:59:29 62° W
Cosmos 2322 3.9 22:54:33 10° NNW 23:00:12 61° WSW 23:00:24 60° WSW
Cosmos 2322 Rocket 4.3 22:59:30 10° WNW 23:02:39 15° W 23:04:18 14° WSW
SJ 16-02 2.5 23:00:48 10° NNW 23:04:12 37° WNW 23:04:12 37° WNW
Cosmos 2237 Rocket 3.5 23:02:15 10° N 23:07:08 28° ENE 23:07:27 28° ENE
Terra 2.4 23:08:32 52° WNW 23:08:32 52° WNW 23:12:38 10° NNW
Cosmos 1066 Rocket 4.5 23:07:39 55° W 23:08:04 56° W 23:13:24 10° N
H-2A R/B 4.4 23:12:14 10° WSW 23:13:48 12° W 23:15:31 10° WNW
Cosmos 1092 Rocket 4.3 23:18:04 10° NNW 23:24:14 55° W 23:24:50 53° WSW
Meteor 1-22 Rocket 4.3 23:19:13 10° N 23:23:47 66° NNW 23:23:47 66° NNW
CZ-3 Stage 3 4.4 23:24:03 58° S 23:24:36 59° SSE 23:59:17 10° E
Cosmos 2219 3.6 23:26:40 54° W 23:27:10 56° WNW 23:32:51 10° NNE
Cosmos 2058 Rocket 4.4 23:24:02 10° N 23:26:54 37° NNE 23:26:54 37° NNE
COSMOS 2455 3.5 23:30:39 44° ENE 23:30:39 44° ENE 23:34:58 10° NE
ADEOS Rocket 4.2 23:33:16 10° NE 23:36:22 26° ENE 23:36:22 26° ENE
Cosmos 2360 Rocket 4.4 23:50:16 10° WNW 23:52:45 14° W 23:52:45 14° W
